This is the latest recevied weather packets stored in our database for station/object DL7AND-1. If no packets are shown the sender has not sent any weather packets the latest 10 day(s).
| Time | Temp. | Humidity | Pressure | Rain* | Wind** | Luminosity | Snow |
|---|---|---|---|---|---|---|---|
| 1778147519 | 9.44° C | - | 1003.9 hPa | 0 mm | - | - | - |
| 1778146028 | 9.44° C | - | 1003.7 hPa | 0 mm | - | - | - |
| 1778145452 | 9.44° C | - | 1003.6 hPa | 0 mm | - | - | - |
| 1778139659 | 8.89° C | - | 1002.7 hPa | 0 mm | - | - | - |
| 1778139118 | 8.33° C | - | 1002.8 hPa | 0 mm | - | - | - |
| 1778138225 | 8.33° C | - | 1002.5 hPa | 0 mm | - | - | - |
| 1778137052 | 8.33° C | - | 1002.4 hPa | 0 mm | - | - | - |
| 1778128604 | 8.33° C | - | 1001 hPa | 0 mm | - | - | - |
| 1778122605 | 8.33° C | - | 1000.3 hPa | 0 mm | - | - | - |
| 1778118738 | 8.33° C | - | 1000.2 hPa | 0 mm | - | - | - |
| 1778117805 | 8.33° C | - | 1000 hPa | 0 mm | - | - | - |
| 1778112093 | 8.33° C | - | 999.5 hPa | 0 mm | - | - | - |
| 1778107629 | 10.56° C | - | 999.3 hPa | 0 mm | - | - | - |
| 1778099515 | 11.67° C | - | 998.4 hPa | 0 mm | - | - | - |
| 1778096456 | 11.67° C | - | 998.4 hPa | 0 mm | - | - | - |
| 1778095916 | 11.67° C | - | 997.9 hPa | 0 mm | - | - | - |
| 1778087801 | 12.78° C | - | 996.8 hPa | 0 mm | - | - | - |
| 1778085401 | 13.33° C | - | 996.6 hPa | 0 mm | - | - | - |
| 1778084826 | 13.33° C | - | 996.8 hPa | 0 mm | - | - | - |
| 1778083625 | 13.33° C | - | 996.9 hPa | 0 mm | - | - | - |
| 1778080026 | 13.33° C | - | 996.8 hPa | 0 mm | - | - | - |
| 1778055956 | 12.78° C | - | 994.7 hPa | 0 mm | - | - | - |
| 1778048509 | 11.67° C | - | 994.4 hPa | 0 mm | - | - | - |
| 1778047865 | 11.67° C | - | 994.3 hPa | 0 mm | - | - | - |
| 1778044909 | 11.67° C | - | 994.4 hPa | 0 mm | - | - | - |
* Rain latest hour (hover to see other rain measurements)
** Current wind speed in m/s (hover to see current wind gust speed)